Taos, NM

11:51 PM MDT on June 28, 2017 (GMT -0600)
Taos Municipal

Weather History for KSKX - September, 2013

Change the Weather History Date:

Wednesday, September 11, 2013

  Actual Average Record
Temperature  
Mean Temperature 65 °F -  
Max Temperature 73 °F 74 °F 84 °F (2004)
Min Temperature 57 °F 41 °F 33 °F (2003)
Growing Degree Days 15 (Base 50)    
Moisture  
Dew Point 53 °F    
Average Humidity 64    
Maximum Humidity 88    
Minimum Humidity 47    
Precipitation  
Precipitation 0.00 in - - ()
Sea Level Pressure  
Sea Level Pressure 30.28 in    
Wind  
Wind Speed 8 mph (SSE)    
Max Wind Speed 17 mph    
Max Gust Speed 22 mph    
Visibility 10 miles    
Events      
Averages and records for this station are not official NWS values.
T = Trace of Precipitation, MM = Missing Value Source: NWS Daily Summary

Daily Weather History Graph

Daily Weather History Graph

Search for Another Location

Airport or City:

Trip Planner

Search our weather history database for the weather conditions in past years. The results will help you decide how hot, cold, wet, or windy it might be!

Date:

Astronomy

Sep. 11, 2013 Rise Set
Actual Time 6:42 AM MDT 7:15 PM MDT
Civil Twilight 6:16 AM MDT 7:41 PM MDT
Nautical Twilight 5:45 AM MDT 8:11 PM MDT
Astronomical Twilight 5:14 AM MDT 8:43 PM MDT
Moon 1:02 PM MDT (9/11) 11:25 PM MDT (9/11)
Length of Visible Light 13h 25m
Length of Day
12h 33m
Waxing Crescent, 39% of the Moon is Illuminated
Sep 11
Waxing Crescent
Sep 12
First Quarter
Sep 19
Full
Sep 26
Last Quarter
Oct 4
New

Hourly Weather History & Observations

Time (MDT) Temp. Dew Point Humidity Pressure Visibility Wind Dir Wind Speed Gust Speed Precip Events Conditions
12:15 AM 57.2 °F 53.6 °F 88% 30.29 in 10.0 mi North 5.8 mph - N/A   Overcast
12:35 AM 57.2 °F 53.6 °F 88% 30.29 in 10.0 mi North 4.6 mph - N/A   Overcast
12:55 AM 57.2 °F 53.6 °F 88% 30.29 in 10.0 mi North 6.9 mph - N/A   Overcast
11:15 AM 64.4 °F 53.6 °F 68% 30.32 in 10.0 mi West 3.5 mph - N/A   Mostly Cloudy
11:35 AM 64.4 °F 53.6 °F 68% 30.32 in 10.0 mi WSW 6.9 mph - N/A   Mostly Cloudy
11:55 AM 64.4 °F 53.6 °F 68% 30.32 in 10.0 mi West 4.6 mph - N/A   Mostly Cloudy
12:15 PM 64.4 °F 53.6 °F 68% 30.31 in 10.0 mi WSW 4.6 mph - N/A   Mostly Cloudy
12:35 PM 66.2 °F 55.4 °F 68% 30.31 in 10.0 mi West 5.8 mph - N/A   Mostly Cloudy
12:55 PM 66.2 °F 55.4 °F 68% 30.31 in 10.0 mi West 4.6 mph - N/A   Mostly Cloudy
1:15 PM 66.2 °F 55.4 °F 68% 30.30 in 10.0 mi WSW 5.8 mph - N/A   Overcast
1:35 PM 66.2 °F 53.6 °F 64% 30.29 in 10.0 mi SSW 5.8 mph - N/A   Mostly Cloudy
1:55 PM 69.8 °F 51.8 °F 53% 30.28 in 10.0 mi Calm Calm - N/A   Partly Cloudy
2:15 PM 69.8 °F 51.8 °F 53% 30.28 in 10.0 mi SW 8.1 mph - N/A   Partly Cloudy
2:35 PM 69.8 °F 53.6 °F 56% 30.27 in 10.0 mi South 6.9 mph - N/A   Mostly Cloudy
2:55 PM 69.8 °F 53.6 °F 56% 30.26 in 10.0 mi West 3.5 mph - N/A   Partly Cloudy
3:15 PM 69.8 °F 51.8 °F 53% 30.25 in 10.0 mi North 3.5 mph - N/A   Mostly Cloudy
3:35 PM 71.6 °F 51.8 °F 50% 30.25 in 10.0 mi West 3.5 mph - N/A   Scattered Clouds
3:55 PM 73.4 °F 51.8 °F 47% 30.25 in 10.0 mi South 11.5 mph - N/A   Scattered Clouds
4:15 PM 71.6 °F 53.6 °F 53% 30.25 in 10.0 mi SSE 12.7 mph 19.6 mph N/A   Scattered Clouds
4:35 PM 73.4 °F 55.4 °F 53% 30.25 in 10.0 mi SE 11.5 mph - N/A   Partly Cloudy
4:55 PM 71.6 °F 53.6 °F 53% 30.25 in 10.0 mi SE 10.4 mph - N/A   Clear
5:15 PM 71.6 °F 53.6 °F 53% 30.25 in 10.0 mi ESE 13.8 mph - N/A   Clear
5:35 PM 71.6 °F 51.8 °F 50% 30.24 in 10.0 mi ESE 12.7 mph - N/A   Partly Cloudy
5:55 PM 69.8 °F 53.6 °F 56% 30.24 in 10.0 mi ESE 17.3 mph - N/A   Clear
6:15 PM 69.8 °F 53.6 °F 56% 30.25 in 10.0 mi ESE 16.1 mph - N/A   Partly Cloudy
6:35 PM 68.0 °F 51.8 °F 56% 30.25 in 10.0 mi ESE 13.8 mph - N/A   Clear
6:55 PM 66.2 °F 51.8 °F 60% 30.25 in 10.0 mi ESE 13.8 mph - N/A   Clear
7:15 PM 66.2 °F 51.8 °F 60% 30.26 in 10.0 mi ESE 15.0 mph 18.4 mph N/A   Mostly Cloudy
7:35 PM 66.2 °F 53.6 °F 64% 30.26 in 10.0 mi ESE 15.0 mph 21.9 mph N/A   Overcast
7:55 PM 64.4 °F 51.8 °F 64% 30.27 in 10.0 mi SE 12.7 mph - N/A   Overcast
8:15 PM 64.4 °F 51.8 °F 64% 30.28 in 10.0 mi ESE 13.8 mph 20.7 mph N/A   Overcast
8:35 PM 64.4 °F 51.8 °F 64% 30.29 in 10.0 mi ESE 11.5 mph 17.3 mph N/A   Mostly Cloudy
8:55 PM 62.6 °F 51.8 °F 68% 30.30 in 10.0 mi SE 10.4 mph - N/A   Mostly Cloudy
9:15 PM 62.6 °F 51.8 °F 68% 30.31 in 10.0 mi SE 10.4 mph - N/A   Scattered Clouds
9:35 PM 62.6 °F 51.8 °F 68% 30.31 in 10.0 mi SE 11.5 mph - N/A   Scattered Clouds
9:55 PM 62.6 °F 51.8 °F 68% 30.32 in 10.0 mi SE 11.5 mph - N/A   Partly Cloudy
10:15 PM 62.6 °F 51.8 °F 68% 30.32 in 10.0 mi SE 9.2 mph - N/A   Mostly Cloudy
10:35 PM 62.6 °F 51.8 °F 68% 30.32 in 10.0 mi SE 9.2 mph - N/A   Mostly Cloudy
10:55 PM 60.8 °F 51.8 °F 72% 30.32 in 10.0 mi SE 9.2 mph - N/A   Partly Cloudy
11:15 PM 60.8 °F 51.8 °F 72% 30.32 in 10.0 mi South 8.1 mph - N/A   Clear
11:35 PM 60.8 °F 51.8 °F 72% 30.32 in 10.0 mi SSW 4.6 mph - N/A   Mostly Cloudy
11:55 PM 60.8 °F 53.6 °F 77% 30.32 in 10.0 mi Calm Calm - N/A   Overcast